[[{"header":{"parameterUnit":"m.s-1","parameterCategory":1,"la1":30.2991,"la2":30.254,"lo1":-89.0895,"lo2":-89.0444,"dy":0.0017,"dx":0.0017,"nx":28,"ny":28,"refTime":"2024-10-09T03:00:00:Z","depth":0,"parameterNumber":2,"parameterNumberName":"U-component_of_WINDS"},"data":[0,0,0,0,0,0,0,0,0,0,0,0,0,0,0,0,0,0,0,0,0,0,0,0,0,0,0,0,0,0,0,0,0,0,0,0,0,0,0,0,0,0,0,0,0,0,0,0,0,0,0,0,0,0,0,0,0,0,-0.5065,-0.5066,0,-0.5089,-0.509,-0.509,-0.5061,-0.506,-0.5059,-0.5058,-0.5084,-0.5085,-0.5087,0,0,0,0,0,0,0,0,0,0,0,0,0,-0.4995,-0.4996,-0.5065,-0.5066,-0.5066,-0.5089,-0.509,-0.509,-0.5062,-0.506,-0.5059,-0.5058,-0.5083,-0.5085,-0.5087,0,0,0,0,0,0,0,0,0,0,0,0,0,-0.5023,-0.4997,-0.5065,-0.5055,-0.5054,-0.5089,-0.509,-0.509,-0.5062,-0.506,-0.5059,-0.5057,-0.5082,-0.5085,-0.5087,-0.5135,0,0,-0.5095,-0.5096,0,0,0,0,0,0,0,0,-0.5021,-0.5025,-0.5056,-0.5055,-0.5055,-0.5071,-0.5074,-0.5105,-0.5062,-0.5059,-0.5058,-0.5056,-0.5081,-0.5083,-0.5091,-0.5136,-0.5137,-0.5095,-0.5097,-0.5098,-0.5099,0,0,0,0,0,0,0,-0.5019,-0.5024,-0.5075,-0.5056,-0.5056,-0.5048,-0.5051,-0.508,-0.5078,-0.5059,-0.5057,-0.506,-0.508,-0.5089,-0.5092,-0.5137,-0.5095,-0.5097,-0.5099,-0.51,-0.5222,-0.5223,0,0,0,0,0,0,-0.5019,-0.5023,-0.5074,-0.5076,-0.5034,-0.5051,-0.5054,-0.5067,-0.5078,-0.5078,-0.5061,-0.5059,-0.5085,-0.5089,-0.5092,-0.5149,-0.5098,-0.51,-0.5102,-0.522,-0.5222,-0.5224,0,0,0,0,0,0,-0.5017,-0.5023,-0.5073,-0.5049,-0.5054,-0.5054,-0.5069,-0.5068,-0.5077,-0.508,-0.508,-0.5071,-0.5084,-0.5089,-0.5124,-0.5149,-0.5101,-0.5104,-0.5218,-0.5221,-0.5223,-0.5262,0,0,0,0,0,0,-0.5015,-0.5023,-0.5041,-0.5049,-0.5056,-0.5105,-0.5071,-0.507,-0.5082,-0.5078,-0.5089,-0.5089,-0.5083,-0.5121,-0.5127,-0.5152,-0.5106,-0.5216,-0.5219,-0.5222,-0.5259,-0.5266,-0.5272,0,0,0,0,0,-0.5013,-0.5052,-0.5042,-0.5049,-0.5078,-0.5106,-0.511,-0.5103,-0.5084,-0.5102,-0.5103,-0.5088,-0.5145,-0.5125,-0.5131,-0.5158,-0.5214,-0.5218,-0.5222,-0.5256,-0.5264,-0.5272,0,0,0,0,0,0,-0.5047,-0.5053,-0.5042,-0.5085,-0.5095,-0.5101,-0.5124,-0.5112,-0.5129,-0.5125,-0.5115,-0.5118,-0.5156,-0.516,-0.5137,-0.5204,-0.5177,-0.5182,-0.52,-0.5208,-0.5215,-0.5214,-0.5108,0,0,0,0,0,-0.506,-0.5082,-0.5085,-0.5122,-0.5128,-0.5125,-0.5137,-0.513,-0.5141,-0.5145,-0.5149,-0.516,-0.5181,-0.5194,-0.5213,-0.5258,-0.526,-0.5279,-0.5286,-0.5291,-0.5297,-0.5321,-0.533,-0.5237,-0.5237,-0.5237,0,0,-0.5086,-0.5091,-0.5106,-0.5129,-0.5136,-0.516,-0.5129,-0.5155,-0.5172,-0.5149,-0.5183,-0.5186,-0.5198,-0.5238,-0.5256,-0.5243,-0.5323,-0.5296,-0.5301,-0.5303,-0.5326,-0.5335,-0.5343,-0.5239,-0.5239,-0.5238,0,0,-0.5146,-0.5152,-0.5183,-0.5191,-0.5202,-0.52,-0.5207,-0.5215,-0.5216,-0.525,-0.5233,-0.5253,-0.5288,-0.5297,-0.5306,-0.5368,-0.5355,-0.5374,-0.5409,-0.5433,-0.544,-0.5447,-0.5469,-0.5477,-0.5379,-0.5379,-0.5379,0,-0.5177,-0.5211,-0.5201,-0.5228,-0.5239,-0.5218,-0.525,-0.5258,-0.5275,-0.5283,-0.5267,-0.531,-0.5317,-0.5359,-0.5374,-0.5382,-0.539,-0.5374,-0.544,-0.5446,-0.5452,-0.5474,-0.5482,-0.5381,-0.5381,-0.5381,-0.538,0,-0.5249,-0.5273,-0.5297,-0.5314,-0.5327,-0.5356,-0.5351,-0.5365,-0.5357,-0.5356,-0.539,-0.5397,-0.5416,-0.5425,-0.5418,-0.5467,-0.5458,-0.5441,-0.5414,-0.5463,-0.5484,-0.5492,-0.5385,-0.5384,-0.5383,-0.5382,0,0,-0.5334,-0.5343,-0.5352,-0.5359,-0.5369,-0.5388,-0.5415,-0.5434,-0.5447,-0.5459,-0.5482,-0.5512,-0.5496,-0.5506,-0.5499,-0.552,-0.5568,-0.55,-0.55,-0.5514,-0.5623,-0.5637,-0.5647,-0.5559,-0.556,-0.5562,-0.5622,0,-0.5394,-0.5443,-0.5434,-0.5482,-0.5504,-0.5483,-0.5508,-0.5516,-0.5516,-0.5535,-0.5534,-0.5555,-0.5532,-0.5538,-0.5558,-0.5559,-0.5591,-0.5554,-0.5582,-0.5583,-0.5581,-0.5657,-0.5672,-0.5729,-0.563,-0.5631,-0.5632,0,-0.5472,-0.5486,-0.5536,-0.5542,-0.5551,-0.5573,-0.5589,-0.5607,-0.5616,-0.5614,-0.5625,-0.5614,-0.5641,-0.5612,-0.565,-0.5626,-0.5636,-0.5638,-0.564,-0.5644,-0.5612,-0.5664,-0.5747,-0.5756,-0.5645,-0.5644,-0.5643,0,-0.553,-0.5561,-0.5595,-0.5601,-0.5609,-0.5625,-0.5629,-0.5636,-0.5648,-0.5662,-0.5669,-0.5686,-0.5696,-0.5709,-0.5702,-0.5682,-0.5742,-0.5712,-0.5742,-0.5742,-0.5757,-0.5756,-0.5844,-0.5761,-0.5761,-0.5761,-0.5761,0,-0.5599,-0.5631,-0.5621,-0.5642,-0.5676,-0.5665,-0.57,-0.5701,-0.5707,-0.5728,-0.5711,-0.5731,-0.572,-0.5739,-0.5734,-0.5767,-0.5771,-0.577,-0.5769,-0.5773,-0.5773,-0.5781,-0.5777,-0.5763,-0.5763,-0.5762,-0.5762,0,-0.5671,-0.5665,-0.5701,-0.5704,-0.5706,-0.5731,-0.5735,-0.5754,-0.5751,-0.5778,-0.5783,-0.578,-0.5801,-0.5795,-0.5818,-0.5815,-0.5856,-0.5849,-0.5853,-0.5852,-0.5882,-0.588,-0.598,-0.5992,-0.59,-0.5901,-0.5901,0,-0.5716,-0.574,-0.5746,-0.5758,-0.5764,-0.5784,-0.5795,-0.5785,-0.5798,-0.5809,-0.5827,-0.5847,-0.5862,-0.5897,-0.5896,-0.5914,-0.5908,-0.5941,-0.591,-0.5913,-0.591,-0.5909,-0.5911,-0.5948,-0.5949,-0.595,-0.5951,0,-0.5798,-0.5794,-0.5811,-0.5827,-0.5841,-0.5854,-0.5864,-0.5875,-0.5865,-0.588,-0.5902,-0.5914,-0.5937,-0.5957,-0.5972,-0.5976,-0.5962,-0.596,-0.5968,-0.5973,-0.5975,-0.5976,-0.5872,-0.5958,-0.5958,-0.5957,-0.5957,-0.5956,-0.5859,-0.5879,-0.5886,-0.5906,-0.5912,-0.5922,-0.5941,-0.594,-0.5958,-0.5976,-0.5968,-0.5993,-0.6,-0.602,-0.6025,-0.6044,-0.6032,-0.6043,-0.6046,-0.6049,-0.6054,-0.5971,-0.6047,-0.6047,-0.6046,-0.6046,-0.6046,0,-0.5941,-0.5944,-0.5962,-0.5977,-0.5993,-0.5977,-0.5987,-0.6001,-0.6023,-0.6031,-0.6046,-0.6071,-0.6089,-0.6089,-0.6107,-0.6122,-0.6116,-0.6127,-0.6127,-0.6128,-0.6064,-0.6056,-0.6132,-0.6132,-0.6132,-0.6132,-0.6132,-0.6132,-0.5986,-0.6019,-0.6015,-0.6051,-0.6054,-0.6078,-0.6085,-0.6094,-0.6101,-0.6129,-0.6144,-0.6144,-0.6148,-0.6166,-0.6182,-0.6182,-0.6189,-0.6203,-0.6201,-0.6141,-0.6132,-0.6124,-0.6117,-0.6205,-0.6205,-0.6263,-0.6264,-0.6264]},{"header":{"parameterUnit":"m.s-1","parameterCategory":1,"la1":30.2991,"la2":30.254,"lo1":-89.0895,"lo2":-89.0444,"dy":0.0017,"dx":0.0017,"nx":28,"ny":28,"refTime":"2024-10-09T03:00:00:Z","depth":0,"parameterNumber":3,"parameterNumberName":"V-component_of_WINDS"},"data":[0,0,0,0,0,0,0,0,0,0,0,0,0,0,0,0,0,0,0,0,0,0,0,0,0,0,0,0,0,0,0,0,0,0,0,0,0,0,0,0,0,0,0,0,0,0,0,0,0,0,0,0,0,0,0,0,0,0,-5.8801,-5.8802,0,-5.89,-5.8901,-5.8902,-5.8816,-5.8812,-5.8809,-5.8805,-5.8901,-5.8906,-5.8912,0,0,0,0,0,0,0,0,0,0,0,0,0,-5.8534,-5.8539,-5.8801,-5.8803,-5.8804,-5.89,-5.8901,-5.8902,-5.8816,-5.8812,-5.8808,-5.8804,-5.8899,-5.8906,-5.8913,0,0,0,0,0,0,0,0,0,0,0,0,0,-5.8643,-5.8541,-5.8801,-5.8773,-5.8771,-5.8899,-5.8901,-5.8903,-5.8817,-5.8812,-5.8807,-5.8802,-5.8896,-5.8905,-5.8914,-5.9074,0,0,-5.894,-5.8944,0,0,0,0,0,0,0,0,-5.8637,-5.8653,-5.8775,-5.8775,-5.8773,-5.884,-5.8842,-5.896,-5.8818,-5.8799,-5.8805,-5.8799,-5.8884,-5.8894,-5.8924,-5.9078,-5.9082,-5.8941,-5.8946,-5.895,-5.8953,0,0,0,0,0,0,0,-5.8629,-5.8648,-5.884,-5.8777,-5.8776,-5.8753,-5.8763,-5.8864,-5.887,-5.8801,-5.8795,-5.8808,-5.8883,-5.8916,-5.8925,-5.9084,-5.8941,-5.8949,-5.8954,-5.8957,-5.9375,-5.938,0,0,0,0,0,0,-5.8625,-5.8642,-5.8837,-5.8843,-5.8691,-5.8762,-5.8773,-5.8824,-5.8869,-5.8871,-5.8812,-5.8803,-5.8903,-5.8915,-5.8928,-5.912,-5.895,-5.8958,-5.8963,-5.9369,-5.9376,-5.9382,0,0,0,0,0,0,-5.862,-5.8644,-5.8833,-5.8741,-5.8764,-5.8773,-5.883,-5.8829,-5.8861,-5.8878,-5.8878,-5.8845,-5.89,-5.8916,-5.9039,-5.9122,-5.8962,-5.897,-5.9362,-5.9371,-5.9379,-5.9503,0,0,0,0,0,0,-5.8613,-5.8642,-5.8704,-5.8743,-5.8769,-5.8944,-5.8835,-5.8834,-5.8877,-5.8867,-5.8909,-5.891,-5.8897,-5.9026,-5.9048,-5.9131,-5.8977,-5.9355,-5.9366,-5.9377,-5.9492,-5.9515,-5.9535,0,0,0,0,0,-5.8604,-5.8734,-5.8708,-5.8732,-5.8847,-5.8948,-5.8963,-5.8946,-5.8884,-5.8946,-5.8957,-5.8909,-5.9109,-5.904,-5.9063,-5.915,-5.9349,-5.9363,-5.9376,-5.9482,-5.951,-5.9534,0,0,0,0,0,0,-5.8702,-5.8738,-5.871,-5.8857,-5.8901,-5.8934,-5.9011,-5.8977,-5.9037,-5.9024,-5.8999,-5.9009,-5.9139,-5.9156,-5.9078,-5.9307,-5.9219,-5.9238,-5.9292,-5.9319,-5.934,-5.9333,-5.8984,0,0,0,0,0,-5.8741,-5.8823,-5.8849,-5.8976,-5.9,-5.9002,-5.9046,-5.9029,-5.9072,-5.909,-5.9109,-5.9152,-5.9224,-5.9272,-5.934,-5.9493,-5.9501,-5.9565,-5.9586,-5.9604,-5.962,-5.9704,-5.9732,-5.9426,-5.9425,-5.9425,0,0,-5.8822,-5.8852,-5.8904,-5.8997,-5.9028,-5.9112,-5.9018,-5.911,-5.9171,-5.9103,-5.9221,-5.9237,-5.9282,-5.9422,-5.9484,-5.944,-5.9707,-5.9621,-5.9635,-5.9642,-5.972,-5.9749,-5.9775,-5.9434,-5.9433,-5.9431,0,0,-5.9013,-5.9044,-5.9154,-5.9188,-5.9238,-5.9239,-5.9266,-5.9305,-5.9314,-5.9432,-5.9383,-5.9454,-5.958,-5.9615,-5.9649,-5.9854,-5.9813,-5.9877,-5.999,-6.0071,-6.0095,-6.0117,-6.0191,-6.0217,-5.9893,-5.9893,-5.9893,0,-5.9107,-5.9233,-5.9214,-5.9311,-5.9353,-5.9297,-5.9408,-5.9441,-5.951,-5.954,-5.949,-5.9647,-5.9673,-5.9821,-5.9871,-5.99,-5.9929,-5.9872,-6.0094,-6.0115,-6.0134,-6.0205,-6.0232,-5.9901,-5.99,-5.9899,-5.9898,0,-5.9346,-5.9434,-5.9516,-5.9587,-5.9638,-5.9741,-5.9737,-5.979,-5.977,-5.9776,-5.9897,-5.9927,-6.0,-6.0034,-6.0013,-6.0178,-6.015,-6.0098,-6.0008,-6.0172,-6.0237,-6.0264,-5.9911,-5.9909,-5.9906,-5.9904,0,0,-5.9601,-5.9662,-5.9692,-5.9724,-5.9776,-5.9843,-5.9943,-6.0017,-6.0063,-6.0113,-6.0196,-6.0304,-6.0256,-6.0295,-6.0278,-6.035,-6.0511,-6.0288,-6.0289,-6.0329,-6.0695,-6.0735,-6.0767,-6.0484,-6.0489,-6.0493,-6.0692,0,-5.9794,-5.9971,-5.9958,-6.0124,-6.0205,-6.0154,-6.0241,-6.0281,-6.029,-6.0358,-6.0366,-6.0444,-6.0375,-6.0398,-6.0466,-6.0477,-6.0585,-6.0462,-6.056,-6.0564,-6.0551,-6.0801,-6.0843,-6.1029,-6.0717,-6.0722,-6.0725,0,-6.0043,-6.0104,-6.028,-6.0321,-6.0354,-6.0433,-6.05,-6.0567,-6.0611,-6.0612,-6.0657,-6.0628,-6.0728,-6.0637,-6.0773,-6.0691,-6.073,-6.0741,-6.0748,-6.0757,-6.0655,-6.0817,-6.1088,-6.1117,-6.0765,-6.0762,-6.0759,0,-6.0213,-6.0338,-6.046,-6.0489,-6.0539,-6.0596,-6.0619,-6.0659,-6.0705,-6.0762,-6.0792,-6.086,-6.0897,-6.095,-6.094,-6.0874,-6.108,-6.0987,-6.1082,-6.1083,-6.1128,-6.1126,-6.1411,-6.1153,-6.1152,-6.1152,-6.1151,0,-6.0431,-6.054,-6.0537,-6.0612,-6.0733,-6.0716,-6.0835,-6.0851,-6.0888,-6.0963,-6.0922,-6.0994,-6.0976,-6.1047,-6.104,-6.1155,-6.1171,-6.1174,-6.1171,-6.1179,-6.1178,-6.1204,-6.1191,-6.1159,-6.1158,-6.1156,-6.1155,0,-6.064,-6.0643,-6.0772,-6.081,-6.0822,-6.091,-6.0942,-6.1012,-6.1017,-6.1114,-6.1135,-6.1143,-6.1225,-6.122,-6.1311,-6.1306,-6.1448,-6.1429,-6.1434,-6.143,-6.1527,-6.1518,-6.1838,-6.1879,-6.1595,-6.1597,-6.1599,0,-6.078,-6.0863,-6.0911,-6.096,-6.0988,-6.1067,-6.1114,-6.1101,-6.1151,-6.1209,-6.1272,-6.135,-6.1412,-6.1544,-6.1557,-6.1627,-6.161,-6.1717,-6.162,-6.1625,-6.1612,-6.1608,-6.1616,-6.1736,-6.174,-6.1742,-6.1744,0,-6.1027,-6.1024,-6.1095,-6.1167,-6.1225,-6.128,-6.133,-6.1372,-6.1363,-6.1422,-6.1506,-6.1554,-6.1649,-6.1727,-6.1794,-6.1816,-6.1779,-6.1775,-6.1801,-6.181,-6.181,-6.1812,-6.1487,-6.1768,-6.1765,-6.1764,-6.1762,-6.1761,-6.1206,-6.1278,-6.1324,-6.1404,-6.1441,-6.1489,-6.1558,-6.1573,-6.1643,-6.1721,-6.1708,-6.1802,-6.1845,-6.1931,-6.196,-6.2032,-6.1994,-6.2031,-6.2041,-6.205,-6.2062,-6.1798,-6.2044,-6.2043,-6.2043,-6.2042,-6.2042,0,-6.1451,-6.1479,-6.1553,-6.1626,-6.1689,-6.1651,-6.1705,-6.176,-6.1844,-6.1888,-6.1951,-6.2048,-6.2123,-6.2143,-6.2215,-6.227,-6.2255,-6.2289,-6.2285,-6.2291,-6.2092,-6.2063,-6.23,-6.23,-6.23,-6.23,-6.23,-6.23,-6.1586,-6.1707,-6.171,-6.1849,-6.1874,-6.1969,-6.2003,-6.2047,-6.2082,-6.2194,-6.2257,-6.227,-6.2304,-6.2379,-6.2447,-6.245,-6.2479,-6.2521,-6.2518,-6.2331,-6.2305,-6.228,-6.2253,-6.2527,-6.2527,-6.2711,-6.2713,-6.2714]}]]